彩虹 21星 (RADUGA 21)

导读

RADUGA 21(“虹”21号)是独联体(CIS)继承自苏联航天项目的通信卫星,属于俄罗斯“虹”(Raduga)第一代地球同步轨道通信卫星系列,于1987年12月10日发射升空。该系列卫星由苏联研制,主要承担东半球(极区除外)军事通信、民用电视转播与电报电话业务,卫星基于KAUR-3平台建造,配备C频段转发器,是苏联早期重要的同步轨道通信卫星,服务军民多领域通信需求。

基本信息
目录编号:
18631
目录名称:
RADUGA 21
国际标识:
1987-100A
轨道中心:
EARTH
卫星名称:
彩虹 21星
卫星全名:
彩虹 21星 (RADUGA 21)
卫星状态:
在轨 (已飞行14065 天)
发射日期:
1987-12-10 UTC
国别 :
俄罗斯(独联体) (CIS)
星等 :
--
轨道信息
数据来源 国际轨道数据 AOE轨道数据
星历时间 2026-06-12T07:04:56+0800
1天前
查看轨道信息
2026-06-11T18:00:00+0800
1天前
查看轨道信息
半长轴 42140.581km 42140.581km
偏心率 0.0000865 0.0001079
轨道倾角 11.313° 11.314°
近地点辐角 309.087° 310.839°
升交点赤经 325.321° 325.325°
平近点角 241.883° 43.188°
近地点 35758.798km 35757.897km
远地点 35766.09km 35766.991km
周期 1434.863分钟 1434.863分钟
每日圈数 1.00358 1.00358
详细信息
平衡模式:
三轴稳定
覆盖范围:
全球
运营商:
俄罗斯国家航天集团
运营商所在国:
俄罗斯
制造商(研发单位):
普里克拉德诺伊·梅哈尼基设计局
制造商所在国:
俄罗斯联邦
使用方式:
暂无
卫星简介
彩虹卫星(Raduga, Gran)是苏联用于军事和通信目的的一系列地球静止通信卫星。彩虹卫星旨在支持军事通信、Orbita地面电视网络,并在整个东半球(极地地区除外)提供电话和电报通信。该卫星已退役。
2D轨道图
3D轨道图
轨道高度分析图
轨道倾角分析图
轨道综合分析图
查看轨道综合分析图